Location: Unspecified
(0.0000°N, 0.0000°E)
Time: 03:39:39
(UTC+00:00)

Hubble Space Telescope - Pass Details

Date: 15 November 2019
Orbit: 536 x 540 km, 28.5° (Epoch: 10 November)

Event Time Altitude Azimuth Distance (km) Brightness Sun altitude
Exits shadow 03:30:23 17° 72° (ENE) 1,408 3.4 -31.6°
Drops below altitude 10° 03:31:40 10° 85° (E) 1,782 4.1 -31.3°
Sets 03:34:13 0° 99° (E) 2,673 5.4 -30.7°
